Location: Dvur Kralove nad Labem
(50.4330°N, 15.8170°E)
Time: 15:03:14
(UTC+02:00)

ISS - Pass Details

Date: 24 May 2018
Orbit: 402 x 407 km, 51.6° (Epoch: 24 May)

Event Time Altitude Azimuth Distance (km) Brightness Sun altitude
Rises 02:57:14 0° 285° (WNW) 2,320 -0.1 -13.8°
Reaches altitude 10° 02:59:32 10° 271° (W) 1,457 -1.3 -13.6°
Enters shadow 03:00:18 15° 262° (W) 1,209 -1.8 -13.5°
